This is the latest recevied weather packets stored in our database for station/object KM8V-8. If no packets are shown the sender has not sent any weather packets the latest 10 day(s).
| Time | Temp. | Humidity | Pressure | Rain* | Wind** | Luminosity | Snow |
|---|---|---|---|---|---|---|---|
| 1777931716 | 22.78° C | 54% | 1002.4 hPa | 0 mm | - | 147 W/m² | - |
| 1777931419 | 22.78° C | 53% | 1002.3 hPa | 0 mm | - | 353 W/m² | - |
| 1777931120 | 22.78° C | 53% | 1002.2 hPa | 0 mm | - | 222 W/m² | - |
| 1777930820 | 23.33° C | 52% | 1002.1 hPa | 0 mm | - | 176 W/m² | - |
| 1777930520 | 23.33° C | 52% | 1002.1 hPa | 0 mm | - | 222 W/m² | - |
| 1777930220 | 23.89° C | 51% | 1002 hPa | 0 mm | - | 240 W/m² | - |
| 1777929919 | 23.33° C | 51% | 1002.1 hPa | 0 mm | - | 475 W/m² | - |
| 1777929617 | 23.33° C | 51% | 1002.2 hPa | 0 mm | - | 501 W/m² | - |
| 1777929317 | 23.33° C | 52% | 1002.2 hPa | 0 mm | - | 526 W/m² | - |
| 1777929018 | 22.78° C | 51% | 1002.4 hPa | 0 mm | - | 497 W/m² | - |
| 1777928717 | 22.78° C | 52% | 1002.5 hPa | 0 mm | - | 533 W/m² | - |
| 1777928417 | 22.78° C | 51% | 1002.5 hPa | 0 mm | - | 296 W/m² | - |
| 1777928117 | 22.78° C | 51% | 1002.6 hPa | 0 mm | - | 338 W/m² | - |
| 1777927820 | 23.33° C | 50% | 1002.6 hPa | 0 mm | - | 421 W/m² | - |
| 1777927520 | 23.33° C | 51% | 1002.6 hPa | 0 mm | - | 544 W/m² | - |
| 1777927217 | 23.33° C | 50% | 1002.6 hPa | 0 mm | - | 498 W/m² | - |
| 1777926918 | 23.33° C | 50% | 1002.6 hPa | 0 mm | - | 715 W/m² | - |
| 1777926617 | 23.33° C | 50% | 1002.7 hPa | 0 mm | - | 703 W/m² | - |
| 1777926318 | 23.33° C | 49% | 1002.8 hPa | 0 mm | - | 689 W/m² | - |
| 1777926018 | 23.33° C | 49% | 1002.8 hPa | 0 mm | - | 697 W/m² | - |
| 1777925721 | 22.78° C | 48% | 1002.9 hPa | 0 mm | - | 698 W/m² | - |
| 1777925418 | 22.78° C | 48% | 1003 hPa | 0 mm | - | 708 W/m² | - |
| 1777925118 | 22.78° C | 48% | 1003 hPa | 0 mm | - | 722 W/m² | - |
| 1777924821 | 22.78° C | 49% | 1003.1 hPa | 0 mm | - | 736 W/m² | - |
| 1777924516 | 22.78° C | 48% | 1003.1 hPa | 0 mm | - | 756 W/m² | - |
* Rain latest hour (hover to see other rain measurements)
** Current wind speed in m/s (hover to see current wind gust speed)